Portada
METAR-TAF:

METAR-TAF

Aeroports :

San Antonio del Táchira, Veneçuela

latitud: 07-51N, longitud: 072-27W, altitud: 377 m

METAR: manca

Hora: 14:36 (18:36 UTC)

Pronòstic

L'informe es va fer fa 2 hores i 36 minuts, a les 16:00 UTC
Pronòstic vàlid del 24 a les 18 UTC al 25 a les 18 UTC
Vent 4 kt del Nord
Visibilitat 10 km o més
Núvols disperses a una alçada de 1600 ft
Probabilitat 30% :
Temporalment
l' 24 a les 18 UTC al 24 a les 22 UTC
Vent 3 kt del Oest/Nord-Oest
Visibilitat: 9000 m
Cel ennuvolat a una alçada de 1600 ft
plugim

TAF: SVSA 241600Z 2418/2518 35004KT 9999 SCT016 TX33/2419Z TN25/2407Z PROB30 TEMPO 2418/2422 29003KT 9000 -DZ BKN016

Observacions i pronòstics meteorològics de més de 4000 aeroports (METAR i TAF).

Les estacions disponibles són els punts grocs i vermells al mapa.

Posi el ratolí al punt desitjat per veure el nom de l'estació.

Feu clic per veure les observacions i els pronòstics meteorològics.

Per canviar el mapa: feu clic els botons verds amb una creu de color negre per apropar; al botó verd amb un guió per allunyar la imatge; o en les fletxes verdes per a mapes adjacents.


METAR-TAF: